Weather History for Del Bajio, Mexico

Change the Weather History Date:

Monday, January 14, 2013

  Actual Average Record
Temperature  
Mean Temperature 64 °F -  
Max Temperature 80 °F 72 °F 82 °F (2007)
Min Temperature 48 °F 41 °F 32 °F (2002)
Degree Days  
Heating Degree Days 1    
Growing Degree Days 14 (Base 50)    
Moisture  
Dew Point 39 °F    
Average Humidity 46    
Maximum Humidity 67    
Minimum Humidity 21    
Precipitation  
Precipitation 0.00 in - - ()
Sea Level Pressure  
Sea Level Pressure 30.06 in    
Wind  
Wind Speed 3 mph ()    
Max Wind Speed 9 mph    
Max Gust Speed -    
Visibility 8.9 miles    
Events      
Averages and records for this station are not official NWS values.
T = Trace of Precipitation, MM = Missing Value Source: Averaged Metar Reports

Daily Weather History Graph

Daily Weather History Graph

Search for Another Location

Airport:

Trip Planner

Search our weather history database for the weather conditions in past years. The results will help you decide how hot, cold, wet, or windy it might be!

Date:

Astronomy

Jan. 14, 2013 Rise Set
Actual Time 7:25 AM CST 6:25 PM CST
Civil Twilight 7:01 AM CST 6:48 PM CST
Nautical Twilight 6:34 AM CST 7:16 PM CST
Astronomical Twilight 6:07 AM CST 7:42 PM CST
Moon 9:29 AM CST (1/14) 9:38 PM CST (1/14)
Length of Visible Light 11h 47m
Length of Day
10h 59m
Waxing Crescent, 11% of the Moon is Illuminated
Jan 14
Waxing Crescent
Jan 18
First Quarter
Jan 26
Full
Feb 3
Last Quarter
Feb 10
New

Hourly Weather History & Observations

Time (CST) Temp. Dew Point Humidity Pressure Visibility Wind Dir Wind Speed Gust Speed Precip Events Conditions
12:46 AM 53.6 °F 41.0 °F 62% 30.15 in 8.0 mi Calm Calm - N/A   Scattered Clouds
1:42 AM 53.6 °F 41.0 °F 62% 30.14 in 8.0 mi Calm Calm - N/A   Scattered Clouds
2:46 AM 51.8 °F 39.2 °F 62% 29.82 in 8.0 mi Calm Calm - N/A   Scattered Clouds
3:46 AM 48.2 °F 37.4 °F 66% 30.15 in 8.0 mi Calm Calm - N/A   Scattered Clouds
4:46 AM 48.2 °F 37.4 °F 66% 30.16 in 8.0 mi Calm Calm - N/A   Scattered Clouds
5:51 AM 50.0 °F 39.2 °F 66% 29.86 in 8.0 mi NE 6.9 mph - N/A   Scattered Clouds
6:47 AM 48.2 °F 37.4 °F 66% 30.18 in 8.0 mi NNE 6.9 mph - N/A   Mostly Cloudy
7:42 AM 50.0 °F 39.2 °F 66% 30.19 in 10.0 mi NE 6.9 mph - N/A   Mostly Cloudy
8:47 AM 51.8 °F 41.0 °F 67% 29.98 in 10.0 mi Calm Calm - N/A   Mostly Cloudy
9:46 AM 62.6 °F 46.4 °F 55% 30.23 in 10.0 mi Calm Calm - N/A   Mostly Cloudy
10:46 AM 69.8 °F 44.6 °F 40% 30.24 in 10.0 mi SSE 6.9 mph - N/A   Mostly Cloudy
11:45 AM 71.6 °F 44.6 °F 38% 29.88 in 10.0 mi South 6.9 mph - N/A   Mostly Cloudy
12:47 PM 77.0 °F 41.0 °F 28% 30.17 in 10.0 mi South 9.2 mph - N/A   Mostly Cloudy
1:45 PM 78.8 °F 39.2 °F 24% 30.16 in 10.0 mi SSE 9.2 mph - N/A   Mostly Cloudy
2:48 PM 80.6 °F 37.4 °F 21% 29.73 in 10.0 mi SSE 6.9 mph - N/A   Mostly Cloudy
3:47 PM 80.6 °F 39.2 °F 23% 30.12 in 10.0 mi SW 8.1 mph - N/A   Mostly Cloudy
4:44 PM 78.8 °F 35.6 °F 21% 30.12 in 10.0 mi SW 4.6 mph - N/A   Overcast
5:43 PM 73.4 °F 33.8 °F 23% 29.79 in 10.0 mi WSW 4.6 mph - N/A   Overcast
6:40 PM 69.8 °F 35.6 °F 28% 30.15 in 8.0 mi West 6.9 mph - N/A   Overcast
7:58 PM 62.6 °F 35.6 °F 37% 30.18 in 8.0 mi WSW 6.9 mph - N/A   Overcast
8:47 PM 60.8 °F 35.6 °F 39% 29.91 in 8.0 mi West 8.1 mph - N/A   Overcast
9:43 PM 60.8 °F 39.2 °F 45% 30.18 in 8.0 mi North 4.6 mph - N/A   Scattered Clouds
10:41 PM 57.2 °F 39.2 °F 51% 30.18 in 8.0 mi NNW 4.6 mph - N/A   Scattered Clouds
11:44 PM 55.4 °F 39.2 °F 54% 29.87 in 8.0 mi Calm Calm - N/A   Scattered Clouds